TimeEST,TemperatureF,Dew PointF,Humidity,Sea Level PressureIn,VisibilityMPH,Wind Direction,Wind SpeedMPH,Gust SpeedMPH,PrecipitationIn,Events,Conditions,WindDirDegrees,DateUTC
12:15 AM,33.8,28.4,81,30.04,10.0,NNE,4.6,-,N/A,,Scattered Clouds,30,2013-01-02 05:15:00
12:40 AM,33.8,28.4,81,30.03,10.0,North,6.9,-,N/A,,Scattered Clouds,350,2013-01-02 05:40:00
1:00 AM,33.8,26.6,75,30.05,10.0,NNE,4.6,-,N/A,,Scattered Clouds,20,2013-01-02 06:00:00
1:20 AM,32.0,28.4,87,30.05,10.0,North,5.8,-,N/A,,Scattered Clouds,350,2013-01-02 06:20:00
1:40 AM,32.0,26.6,80,30.05,10.0,NNE,3.5,-,N/A,,Scattered Clouds,30,2013-01-02 06:40:00
2:05 AM,32.0,26.6,80,30.05,10.0,Calm,Calm,-,N/A,,Mostly Cloudy,0,2013-01-02 07:05:00
2:25 AM,32.0,26.6,80,30.05,10.0,North,4.6,-,N/A,,Mostly Cloudy,360,2013-01-02 07:25:00
2:45 AM,32.0,26.6,80,30.06,10.0,North,3.5,-,N/A,,Overcast,350,2013-01-02 07:45:00
3:05 AM,32.0,26.6,80,30.07,10.0,North,3.5,-,N/A,,Overcast,350,2013-01-02 08:05:00
3:30 AM,32.0,26.6,80,30.06,10.0,North,4.6,-,N/A,,Overcast,360,2013-01-02 08:30:00
3:50 AM,32.0,26.6,80,30.05,10.0,North,5.8,-,N/A,,Overcast,10,2013-01-02 08:50:00
4:10 AM,32.0,26.6,80,30.06,10.0,North,5.8,-,N/A,,Scattered Clouds,360,2013-01-02 09:10:00
4:30 AM,32.0,24.8,75,30.06,10.0,NNE,5.8,-,N/A,,Clear,30,2013-01-02 09:30:00
4:55 AM,32.0,24.8,75,30.07,10.0,North,6.9,-,N/A,,Clear,360,2013-01-02 09:55:00
5:15 AM,32.0,23.0,69,30.07,10.0,North,6.9,-,N/A,,Clear,10,2013-01-02 10:15:00
5:35 AM,30.2,23.0,75,30.07,10.0,North,6.9,-,N/A,,Clear,10,2013-01-02 10:35:00
6:50 AM,28.4,21.2,74,30.10,10.0,North,4.6,-,N/A,,Clear,360,2013-01-02 11:50:00
7:50 AM,28.4,21.2,74,30.13,10.0,NNW,4.6,-,N/A,,Clear,340,2013-01-02 12:50:00
8:50 AM,28.4,19.4,69,30.14,10.0,NNW,4.6,-,N/A,,Clear,330,2013-01-02 13:50:00
9:50 AM,33.8,19.4,56,30.17,10.0,NW,8.1,-,N/A,,Clear,320,2013-01-02 14:50:00
10:47 AM,33.8,19.4,56,30.18,10.0,North,8.1,-,N/A,,Clear,350,2013-01-02 15:47:00
11:50 AM,35.6,19.4,52,30.16,10.0,NNW,6.9,-,N/A,,Clear,330,2013-01-02 16:50:00
12:55 PM,35.6,17.6,48,30.14,10.0,NW,8.1,-,N/A,,Clear,320,2013-01-02 17:55:00
1:47 PM,35.6,17.6,48,30.13,10.0,NW,5.8,-,N/A,,Clear,310,2013-01-02 18:47:00
2:59 PM,37.4,17.6,45,30.14,10.0,North,8.1,-,N/A,,Clear,360,2013-01-02 19:59:00
3:45 PM,35.6,17.6,48,30.15,10.0,NNW,9.2,-,N/A,,Clear,330,2013-01-02 20:45:00
4:55 PM,30.2,15.8,55,30.18,10.0,North,3.5,-,N/A,,Clear,360,2013-01-02 21:55:00
5:50 PM,28.4,15.8,59,30.20,10.0,NNW,8.1,-,N/A,,Clear,340,2013-01-02 22:50:00
6:55 PM,28.4,14.0,55,30.21,10.0,North,4.6,-,N/A,,Clear,360,2013-01-02 23:55:00
7:59 PM,26.6,15.8,64,30.22,10.0,NNW,4.6,-,N/A,,Clear,340,2013-01-03 00:59:00
8:05 PM,26.6,15.8,64,30.22,10.0,NW,4.6,-,N/A,,Clear,320,2013-01-03 01:05:00
8:30 PM,26.6,17.6,69,30.23,10.0,Calm,Calm,-,N/A,,Clear,0,2013-01-03 01:30:00
8:50 PM,26.6,15.8,64,30.23,10.0,NNW,4.6,-,N/A,,Clear,340,2013-01-03 01:50:00
9:10 PM,28.4,15.8,59,30.24,10.0,NE,3.5,-,N/A,,Clear,40,2013-01-03 02:10:00
9:30 PM,28.4,15.8,59,30.24,10.0,Calm,Calm,-,N/A,,Clear,0,2013-01-03 02:30:00
9:55 PM,28.4,17.6,64,30.24,10.0,NNE,3.5,-,N/A,,Clear,30,2013-01-03 02:55:00
10:15 PM,28.4,17.6,64,30.26,10.0,Calm,Calm,-,N/A,,Clear,0,2013-01-03 03:15:00
10:35 PM,28.4,17.6,64,30.25,10.0,North,3.5,-,N/A,,Clear,360,2013-01-03 03:35:00
10:55 PM,26.6,17.6,69,30.25,10.0,Calm,Calm,-,N/A,,Clear,0,2013-01-03 03:55:00
11:20 PM,26.6,17.6,69,30.26,10.0,Calm,Calm,-,N/A,,Clear,0,2013-01-03 04:20:00
11:40 PM,24.8,17.6,74,30.25,10.0,Calm,Calm,-,N/A,,Clear,0,2013-01-03 04:40:00